Preview of NWS' New Version of Forecast
This preview is not operational and should not be used for support decisions.

Regional Weather Roundup (RWR)

Issued by National Weather Service (NWS)

                            
000
ASUS43 KBIS 201710
RWRND 

NORTH DAKOTA REGIONAL WEATHER ROUNDUP
NATIONAL WEATHER SERVICE BISMARCK ND
1200 PM CDT TUE AUG 20 2019

NOTE: "FAIR" INDICATES FEW OR NO CLOUDS BELOW 12,000 FEET WITH NO
SIGNIFICANT WEATHER AND/OR OBSTRUCTIONS TO VISIBILITY.


NDZ001>003-009>011-017-201800-
NORTHWEST NORTH DAKOTA
  
CITY           SKY/WX    TMP DP  RH WIND       PRES   REMARKS
WILLISTON      SUNNY     67  45  45 VRB7      30.21R                  
MINOT          SUNNY     68  48  48 N14G22    30.16S                  
MINOT AFB      SUNNY     66  45  46 N14       30.15S                  
$$
 
NDZ018>021-031>035-040>046-201800-
SOUTHWEST NORTH DAKOTA
  
CITY           SKY/WX    TMP DP  RH WIND       PRES   REMARKS
BISMARCK       MOSUNNY   70  54  56 NE15G21   30.13S                  
DICKINSON      SUNNY     66  49  54 NE15      30.17R                  
GARRISON         N/A     66  49  54 NE10      30.15S                  
HETTINGER ARPT MOSUNNY   69  52  54 NE16      30.17R                  
$$
 
NDZ004>008-012>016-024-026-027-054-201800-
NORTHEAST NORTH DAKOTA
  
CITY           SKY/WX    TMP DP  RH WIND       PRES   REMARKS
GRAND FORKS    MOSUNNY   71  52  50 N16       30.06R                  
DEVILS LAKE    MOSUNNY   64  51  62 N13       30.14R                  
$$
 
NDZ022-023-025-028>030-036>039-047>053-201800-
SOUTHEAST NORTH DAKOTA
  
CITY           SKY/WX    TMP DP  RH WIND       PRES   REMARKS
FARGO          CLOUDY    71  63  75 N16G24    30.03R                  
JAMESTOWN      SUNNY     70  59  68 N13G21    30.08R                  
$$